Satellite: GO-32
Catalog number: 25397
Epoch time:      08303.60770379
Element set:     734
Inclination:      098.3507 deg
RA of node:       332.0464 deg
Eccentricity:    0.0001194
Arg of perigee:   164.2653 deg
Mean anomaly:     195.8565 deg
Mean motion:   14.23150493 rev/day
Decay rate:        7.6e-07 rev/day^2
Epoch rev:           53533
Checksum:              308

Satellite: NO-44
Catalog number: 26931
Epoch time:      08303.54634864
Element set:    0014
Inclination:      067.0521 deg
RA of node:       298.5268 deg
Eccentricity:    0.0007035
Arg of perigee:   257.7514 deg
Mean anomaly:     102.2805 deg
Mean motion:   14.29537172 rev/day
Decay rate:       -5.6e-07 rev/day^2
Epoch rev:           36961
Checksum:              302

Satellite: SO-50
Catalog number: 27607
Epoch time:      08303.44558811
Element set:    0735
Inclination:      064.5612 deg
RA of node:       005.8879 deg
Eccentricity:    0.0085288
Arg of perigee:   253.2542 deg
Mean anomaly:     105.9213 deg
Mean motion:   14.71389988 rev/day
Decay rate:       -2.0e-07 rev/day^2
Epoch rev:           31472
Checksum:              317

Satellite: CO-55
Catalog number: 27844
Epoch time:      08303.75216255
Element set:    0430
Inclination:      098.7167 deg
RA of node:       310.1630 deg
Eccentricity:    0.0010773
Arg of perigee:   087.4647 deg
Mean anomaly:     272.7758 deg
Mean motion:   14.20603569 rev/day
Decay rate:        6.3e-07 rev/day^2
Epoch rev:           27654
Checksum:              313

Satellite: CO-57
Catalog number: 27848
Epoch time:      08303.55707943
Element set:    0382
Inclination:      098.7187 deg
RA of node:       309.0463 deg
Eccentricity:    0.0010592
Arg of perigee:   091.3827 deg
Mean anomaly:     268.8567 deg
Mean motion:   14.20410768 rev/day
Decay rate:        5.0e-07 rev/day^2
Epoch rev:           27648
Checksum:              338

Satellite: AO-51
Catalog number: 28375
Epoch time:      08303.51448304
Element set:     232
Inclination:      098.0633 deg
RA of node:       320.4861 deg
Eccentricity:    0.0084675
Arg of perigee:   104.6798 deg
Mean anomaly:     256.3804 deg
Mean motion:   14.40622295 rev/day
Decay rate:        1.1e-07 rev/day^2
Epoch rev:           22774
Checksum:              297

Satellite: CO-56
Catalog number: 28941
Epoch time:      08304.08983522
Element set:     506
Inclination:      098.1206 deg
RA of node:       074.0287 deg
Eccentricity:    0.0143425
Arg of perigee:   268.4280 deg
Mean anomaly:     090.0644 deg
Mean motion:   15.63537666 rev/day
Decay rate:     3.0933e-04 rev/day^2
Epoch rev:           15107
Checksum:              312

Satellite: CP3
Catalog number: 31128
Epoch time:      08303.71476206
Element set:    0469
Inclination:      098.0226 deg
RA of node:       001.3545 deg
Eccentricity:    0.0101706
Arg of perigee:   278.9941 deg
Mean anomaly:     079.9762 deg
Mean motion:   14.51985592 rev/day
Decay rate:       -4.8e-07 rev/day^2
Epoch rev:           08145
Checksum:              314

Satellite: CP4
Catalog number: 31132
Epoch time:      08303.72917007
Element set:     447
Inclination:      098.0281 deg
RA of node:       004.1944 deg
Eccentricity:    0.0084540
Arg of perigee:   270.6935 deg
Mean anomaly:     088.4569 deg
Mean motion:   14.55151479 rev/day
Decay rate:      -1.75e-06 rev/day^2
Epoch rev:            8151
Checksum:              299

Satellite: CO-65
Catalog number: 32785
Epoch time:      08303.39978999
Element set:    0209
Inclination:      097.9788 deg
RA of node:       002.8797 deg
Eccentricity:    0.0016107
Arg of perigee:   062.7167 deg
Mean anomaly:     297.5694 deg
Mean motion:   14.81407419 rev/day
Decay rate:       2.40e-06 rev/day^2
Epoch rev:           02727
Checksum:              364

/EX
SB KEPS @ AMSAT  $ORB08304.W
Orbital Elements  08304.WEATHER

HR AMSAT ORBITAL ELEMENTS FOR WEATHER SATELLITES
FROM WA5QGD FORT WORTH,TX October 30, 2008
Send Subscribe/unsubscribe to KEPS at 
http://www.amsat.org/mailman/listinfo/keps
BID: ORB08304.W
TO ALL RADIO AMATEURS BT

Satellite: NOAA-10
Catalog number: 16969
Epoch time:      08304.30522016
Element set:     347
Inclination:      098.7139 deg
RA of node:       325.9567 deg
Eccentricity:    0.0012665
Arg of perigee:   144.2817 deg
Mean anomaly:     215.9213 deg
Mean motion:   14.27371865 rev/day
Decay rate:        7.3e-07 rev/day^2
Epoch rev:           15071
Checksum:              303

Satellite: NOAA-11
Catalog number: 19531
Epoch time:      08304.30810578
Element set:     377
Inclination:      098.7957 deg
RA of node:       031.7257 deg
Eccentricity:    0.0012137
Arg of perigee:   046.0431 deg
Mean anomaly:     314.1794 deg
Mean motion:   14.14880929 rev/day
Decay rate:       1.57e-06 rev/day^2
Epoch rev:            3701
Checksum:              296

Satellite: NOAA-12
Catalog number: 21263
Epoch time:      08304.59530174
Element set:     889
Inclination:      098.7725 deg
RA of node:       306.5731 deg
Eccentricity:    0.0013327
Arg of perigee:   090.6496 deg
Mean anomaly:     269.6210 deg
Mean motion:   14.25551843 rev/day
Decay rate:        1.9e-07 rev/day^2
Epoch rev:           90768
Checksum:              319

